Terminal Aerodrome Forecast
Issued by NWS Knoxville/Tri Cities, TN

Home | Current Version | Previous Version | Text Only | Print | Product List | Glossary On
Versions: 1 2 3 4 5 6 7 8 9 10 11 12 13 14 15 16 17 18 19 20 21 22 23 24 25 26
000
FTUS44 KMRX 301720
TAFTRI
TAF
KTRI 301720Z 3018/3118 03003KT P6SM SCT040
     FM310000 00000KT P6SM SCT250
     FM310800 00000KT 4SM BR SCT150
     FM311200 23005KT P6SM OVC100=

USA.gov is the U.S. government's official web portal to all federal, state and local government web resources and services.